User: anonymous   Login
Location: Vancouver
(49.2500°N, 123.1330°W)
Time: 07:16:12
(UTC-07:00)
Language:

Cosmos 1864 Rocket - Orbit

View from above orbital plane
View from above orbital plane
View from above satellite
View from above satellite

Ground track
Ground track

The orbit data is extracted from the following two-line orbital elements,

1 18161U 87057B   16124.77900093  .00000060  00000-0  45268-4 0  9998
2 18161  82.9369  16.6006 0031797  21.7638  37.4470 13.76933327427887
Epoch (UTC): 03 May 2016 18:41:45
Eccentricity: 0.0031797
inclination: 82.9369°
perigee height: 951 km
apogee height: 998 km
right ascension of ascending node: 16.6006°
argument of perigee: 21.7638°
revolutions per day: 13.76933327
mean anomaly at epoch: 37.4470°
orbit number at epoch: 42788

The dashed part of the orbit path shows where the satellite is in the earth's shadow,  

DLR